Location: Acequia del Cap
(41.7000°N, 0.6167°E)
Time: 01:01:28
(UTC+00:00)

OAO 3 Rocket - Pass Details

Date: 07 August 2020
Orbit: 629 x 683 km, 35.0° (Epoch: 22 September)

Event Time Altitude Azimuth Distance (km) Brightness Sun altitude
Exits shadow 04:15:36 10° 236° (SW) 2,132 5.1 -7.9°
Reaches altitude 10° 04:15:39 10° 235° (SW) 2,112 5.1 -7.9°
Maximum altitude 04:20:07 34° 171° (S) 1,100 4.2 -7.2°
Drops below altitude 10° 04:24:33 10° 107° (ESE) 2,097 6.5 -6.5°
Sets 04:27:05 0° 98° (E) 3,004 7.6 -6.1°
